This demonstration page uses our WeatherBlox Daily Observations layout. Learn more.

Left ArrowRight Arrow

30.21309, -93.2044

Hourly Observations for July 10, 2019

Temp ( °F °C ) Dew Point ( °F °C ) Humidity (%) Winds ( mph kmh ) Pressure ( in mb ) Visibility ( mi km ) Precip ( " mm )
12:15 am 00:15 Clear 82 27.9 77 25 84 84 WSW 3 6 29.98 1015 10 16 0.00 0.00
12:35 am 00:35 Clear 82 27.8 77 25.1 85 85 SW 5 7 29.98 1015 10 16 0.00 0.00
12:55 am 00:55 Clear 82 27.8 77 25.1 85 85 SW 3 6 29.97 1015 10 16 0.00 0.00
1:15 am 01:15 Clear 82 27.6 77 25.2 87 87 WSW 3 6 29.97 1015 10 16 0.00 0.00
1:35 am 01:35 Clear 82 27.7 77 25.2 86 86 W 5 7 29.97 1015 10 16 0.00 0.00
1:55 am 01:55 Clear 82 27.8 77 25.2 86 86 W 5 7 29.97 1015 10 16 0.00 0.00
2:15 am 02:15 Clear 82 27.8 77 25.1 85 85 W 6 9 29.96 1015 10 16 0.00 0.00
2:35 am 02:35 Clear 82 28 77 25 84 84 W 5 7 29.96 1015 10 16 0.00 0.00
2:55 am 02:55 Clear 82 27.7 77 25.1 86 86 W 5 7 29.96 1015 10 16 0.00 0.00
3:35 am 03:35 Clear 82 27.6 78 25.3 87 87 W 6 9 29.95 1014 10 16 0.00 0.00
3:55 am 03:55 Clear 82 27.5 77 25.2 87 87 NW 6 9 29.96 1015 10 16 0.00 0.00
4:15 am 04:15 Clear 82 27.5 77 25.1 87 87 N 7 11 29.95 1014 10 16 0.00 0.00
4:35 am 04:35 Clear 82 27.5 77 25 86 86 WNW 6 9 29.96 1015 10 16 0.00 0.00
4:55 am 04:55 Clear 81 27.3 77 25 87 87 NNW 7 11 29.96 1015 10 16 0.00 0.00
5:15 am 05:15 Clear 80 26.6 77 24.8 90 90 N 8 13 29.97 1015 10 16 0.00 0.00
5:35 am 05:35 Clear 79 26 76 24.7 93 93 N 7 11 29.97 1015 10 16 0.00 0.00
6:00 am 06:00 Mostly Cloudy 79 26 77 25 94 94 N 8 13 29.97 1015 10 16 0.00 0.00
6:47 am 06:47 Mostly Cloudy 79 26 77 25 94 94 N 8 13 29.99 1016 10 16 0.00 0.00
7:54 am 07:54 Mostly Cloudy 81 27 77 25 89 89 N 9 15 30.00 1016 10 16 0.00 0.00
8:50 am 08:50 Mostly Cloudy 82 28 77 25 84 84 NNW 12 19 30.00 1016 10 16 0.00 0.00
9:55 am 09:55 Mostly Cloudy 84 29 77 25 79 79 NW 9 15 30.02 1017 10 16 0.00 0.00
10:50 am 10:50 Mostly Cloudy 84 29 77 25 79 79 NNW 8 13 30.02 1017 10 16 0.00 0.00
11:47 am 11:47 Mostly Cloudy 86 30 77 25 75 75 NW 8 13 30.02 1017 10 16 0.00 0.00
1:50 pm 13:50 Partly Cloudy 90 32 75 24 63 63 N 3 6 29.99 1016 10 16 0.00 0.00
2:50 pm 14:50 Partly Cloudy 91 33 77 25 63 63 NW 3 6 29.97 1015 10 16 0.00 0.00
3:55 pm 15:55 Partly Cloudy 91 33 77 25 63 63 NNE 3 6 29.95 1014 10 16 0.00 0.00
4:50 pm 16:50 Partly Cloudy with Nearby Thunderstorms 91 33 77 25 63 63 Calm 29.93 1014 10 16 0.00 0.00
5:50 pm 17:50 Partly Cloudy with Nearby Thunderstorms 86 30 77 25 75 75 N 6 9 29.92 1013 10 16 0.00 0.00
6:50 pm 18:50 Partly Cloudy 86 30 79 26 79 79 N 3 6 29.91 1013 10 16 0.00 0.00
7:50 pm 19:50 Mostly Sunny 84 29 77 25 79 79 Calm 29.91 1013 10 16 0.00 0.00
8:50 pm 20:50 Mostly Clear 82 28 77 25 84 84 N 3 6 29.94 1014 10 16 0.00 0.00
9:50 pm 21:50 Mostly Clear 81 27 77 25 89 89 NNE 6 9 29.94 1014 10 16 0.00 0.00
10:15 pm 22:15 Clear with Light Rain 81 27.3 78 25.4 89 89 N 9 15 29.94 1014 10 16 0.00 0.00
10:35 pm 22:35 Clear 81 27.3 78 25.3 89 89 N 9 15 29.94 1014 10 16 0.00 0.00
10:55 pm 22:55 Clear 81 27.1 77 24.9 88 88 NNE 7 11 29.93 1014 10 16 0.00 0.00
11:15 pm 23:15 Clear 82 27.5 77 25 86 86 NNE 9 15 29.93 1014 10 16 0.00 0.00
11:35 pm 23:35 Clear 81 27.3 78 25.3 89 89 N 8 13 29.92 1013 10 16 0.00 0.00
11:55 pm 23:55 Clear 80 26.8 77 25.1 90 90 N 9 15 29.92 1013 10 16 0.00 0.00

Powered by AerisWeather